Temporada 2023 · Ronda 16

Japanese Grand Prix

2023-09-24 · Suzuka Circuito · Japan · Japanese Grand Prix · 53Lap · 307.471km
Red Bull 1:30:58.421
McLaren +19.387
Victoria de equipo 33pt P2 · P3 2-3
McLaren +36.494
Vuelta rápida
1:34.183 · L39
Abandono
5
Alexander Albon L26 Logan Sargeant L22 Lance Stroll L20 Sergio Pérez L15 Valtteri Bottas L7
Clima
27°/42°
media aire/pista · seco · humedad 42%
Coche de seguridad
2
desplegado en la vuelta L1, L14
Uso de neumáticos Dirección de carrera
Storylines · This Grand Prix & circuit
Más victorias en este GP
Michael Schumacher 6 victorias
Lewis Hamilton activo 5 victorias
Sebastian Vettel 4 victorias
Conversión pole-victoria 20/36 55.6%
Most SC/VSC · all-time P14
Final más ajustado · all-time P27
Most lead changes · all-time P1
Circuito Info
Suzuka Circuito Suzuka, Japan
53Lap 307.471km 36 carreras held (1987–) Récord de vuelta 1:30.965 · Andrea Kimi Antonelli (2025)
Récords Watch · Active drivers ranked at this Grand Prix
P2 Lewis Hamilton 5 victorias · → Michael Schumacher -1
P3 Max Verstappen 4 victorias · → Lewis Hamilton -1
P5 Fernando Alonso 2 victorias · → Sebastian Vettel -2
P1 Fernando Alonso 22 salidas · GP #1
P4 Lewis Hamilton 18 salidas · → Rubens Barrichello -1
P11 Nico Hülkenberg 13 salidas · → Sebastian Vettel -1
Carrera Trace · position by lap
SC · vueltas 1–4 VSC · vuelta 14 salida parada SG 1 5 9 13 17 21 25 29 33 37 41 45 49 53 FIN Verstappen · parada en boxes L16 Verstappen · parada en boxes L37 Verstappen VER Verstappen VER Norris · parada en boxes L17 Norris · parada en boxes L36 Norris NOR Norris NOR Piastri · parada en boxes L13 Piastri · parada en boxes L35 Piastri PIA Piastri PIA Leclerc · parada en boxes L17 Leclerc · parada en boxes L34 Leclerc LEC Leclerc LEC Hamilton · parada en boxes L16 Hamilton · parada en boxes L34 Hamilton HAM Hamilton HAM Sainz · parada en boxes L18 Sainz · parada en boxes L38 Sainz SAI Sainz SAI Russell · parada en boxes L24 Russell RUS Russell RUS Alonso · parada en boxes L11 Alonso · parada en boxes L25 Alonso ALO Alonso ALO Ocon · parada en boxes L1 Ocon · parada en boxes L28 Ocon OCO Ocon OCO Gasly · parada en boxes L18 Gasly · parada en boxes L34 Gasly GAS Gasly GAS Lawson · parada en boxes L10 Lawson · parada en boxes L25 Lawson LAW Lawson LAW Tsunoda · parada en boxes L9 Tsunoda · parada en boxes L30 Tsunoda TSU Tsunoda TSU Zhou · parada en boxes L1 Zhou · parada en boxes L10 Zhou · parada en boxes L29 Zhou ZHO Zhou ZHO Hülkenberg · parada en boxes L8 Hülkenberg · parada en boxes L21 Hülkenberg · parada en boxes L37 Hülkenberg HUL Hülkenberg HUL Magnussen · parada en boxes L12 Magnussen · parada en boxes L31 Magnussen MAG Magnussen MAG Albon · parada en boxes L1 Albon · parada en boxes L13 Albon · abandono L26 Albon ALB Albon ALB Sargeant · parada en boxes L2 Sargeant · parada en boxes L5 Sargeant · parada en boxes L21 · sanción cumplida Sargeant · abandono L22 Sargeant SAR Sargeant SAR Stroll · parada en boxes L14 Stroll · abandono L20 Stroll STR Stroll STR Pérez · parada en boxes L2 Pérez · parada en boxes L12 · sanción cumplida Pérez · parada en boxes L14 Pérez · abandono L15 Pérez PER Pérez PER Bottas · parada en boxes L1 Bottas · parada en boxes L6 Bottas · abandono L7 Bottas BOT Bottas BOT
SC·VSC parada en boxes sanción cumplida en boxes SG Parrilla de salida FIN clasificación oficial sanción sumada tras la carrera coche detenido posición en cada vuelta (desde 1996)
PosPilotoTeamParrillaVueltaTiempo / EstadoPuntos
1 1 Max Verstappen FL Red Bull 1 53 1:30:58.421 26
2 4 Lando Norris McLaren 3 53 +19.387 18
3 81 Oscar Piastri McLaren 2 53 +36.494 15
4 16 Charles Leclerc Ferrari 4 53 +43.998 12
5 44 Lewis Hamilton Mercedes 7 53 +49.376 10
6 55 Carlos Sainz Ferrari 6 53 +50.221 8
7 63 George Russell Mercedes 8 53 +57.659 6
8 14 Fernando Alonso Aston Martin 10 53 +1:14.725 4
9 31 Esteban Ocon Alpine F1 Team 14 53 +1:19.678 2
10 10 Pierre Gasly Alpine F1 Team 12 53 +1:23.155 1
11 40 Liam Lawson AlphaTauri 11 52 +3.089
12 22 Yuki Tsunoda AlphaTauri 9 52 +3.974
13 24 Guanyu Zhou Alfa Romeo 19 52 +6.340
14 27 Nico Hülkenberg Haas F1 Team 18 52 +9.598
15 20 Kevin Magnussen Haas F1 Team 15 52 +29.570
R 23 Alexander Albon Williams 13 26 Retired
R 2 Logan Sargeant Williams 20 22 Retired
R 18 Lance Stroll Aston Martin 17 20 Retired
R 11 Sergio Pérez Red Bull 5 15 Retired
R 77 Valtteri Bottas Alfa Romeo 16 7 Retired
PosPilotoTeamQ1Q2Q3Diferencia con la pole
1 1 Max Verstappen Red Bull 1:29.878 1:29.964 1:28.877 POLE Q3
2 81 Oscar Piastri McLaren 1:30.439 1:30.122 1:29.458 +0.581 Q3
3 4 Lando Norris McLaren 1:30.063 1:30.296 1:29.493 +0.616 Q3
4 16 Charles Leclerc Ferrari 1:30.393 1:29.940 1:29.542 +0.665 Q3
5 11 Sergio Pérez Red Bull 1:30.652 1:29.965 1:29.650 +0.773 Q3
6 55 Carlos Sainz Ferrari 1:30.651 1:30.067 1:29.850 +0.973 Q3
7 44 Lewis Hamilton Mercedes 1:30.811 1:30.040 1:29.908 +1.031 Q3
8 63 George Russell Mercedes 1:30.811 1:30.268 1:30.219 +1.342 Q3
9 22 Yuki Tsunoda AlphaTauri 1:30.733 1:30.204 1:30.303 +1.327 Q2
10 14 Fernando Alonso Aston Martin 1:30.971 1:30.465 1:30.560 +1.588 Q2
11 40 Liam Lawson AlphaTauri 1:30.425 1:30.508 +1.548 Q1
12 10 Pierre Gasly Alpine F1 Team 1:30.843 1:30.509 +1.632 Q2
13 23 Alexander Albon Williams 1:30.941 1:30.537 +1.660 Q2
14 31 Esteban Ocon Alpine F1 Team 1:30.960 1:30.586 +1.709 Q2
15 20 Kevin Magnussen Haas F1 Team 1:30.976 1:30.665 +1.788 Q2
16 77 Valtteri Bottas Alfa Romeo 1:31.049 +2.172 Q1
17 18 Lance Stroll Aston Martin 1:31.181 +2.304 Q1
18 27 Nico Hülkenberg Haas F1 Team 1:31.299 +2.422 Q1
19 24 Guanyu Zhou Alfa Romeo 1:31.398 +2.521 Q1
20 2 Logan Sargeant Williams
Parrilla de salida
Oficial
Final grid as clasificado, including any desde el pit lane salidas. Source: Jolpica-F1. The arrow compares the grid slot with the clasificación classification; hover a drop to see the stewards document behind it.
No hay datos de esta sesión.
PosPilotoMejor vueltaDiferenciaVueltas
1 1 Max Verstappen 1:31.647 25
2 55 Carlos Sainz 1:32.273 +0.626 24
3 4 Lando Norris 1:32.392 +0.745 24
4 16 Charles Leclerc 1:32.574 +0.927 25
5 22 Yuki Tsunoda 1:32.597 +0.950 21
6 14 Fernando Alonso 1:32.650 +1.003 23
7 81 Oscar Piastri 1:32.713 +1.066 26
8 23 Alexander Albon 1:32.991 +1.344 24
9 40 Liam Lawson 1:33.005 +1.358 28
10 18 Lance Stroll 1:33.040 +1.393 17
11 11 Sergio Pérez 1:33.043 +1.396 25
12 10 Pierre Gasly 1:33.129 +1.482 23
13 63 George Russell 1:33.310 +1.663 24
14 27 Nico Hülkenberg 1:33.448 +1.801 24
15 31 Esteban Ocon 1:33.516 +1.869 22
16 44 Lewis Hamilton 1:33.699 +2.052 22
17 77 Valtteri Bottas 1:33.860 +2.213 24
18 20 Kevin Magnussen 1:33.975 +2.328 23
19 2 Logan Sargeant 1:34.212 +2.565 27
20 24 Guanyu Zhou 1:34.831 +3.184 23
Classified by best lap · source OpenF1 (2023+)
PosPilotoMejor vueltaDiferenciaVueltas
1 1 Max Verstappen 1:30.688 19
2 16 Charles Leclerc 1:31.008 +0.320 23
3 4 Lando Norris 1:31.152 +0.464 22
4 55 Carlos Sainz 1:31.237 +0.549 22
5 63 George Russell 1:31.328 +0.640 22
6 14 Fernando Alonso 1:31.492 +0.804 22
7 23 Alexander Albon 1:31.555 +0.867 23
8 81 Oscar Piastri 1:31.662 +0.974 22
9 11 Sergio Pérez 1:31.710 +1.022 24
10 77 Valtteri Bottas 1:31.739 +1.051 22
11 18 Lance Stroll 1:31.771 +1.083 22
12 31 Esteban Ocon 1:31.794 +1.106 22
13 27 Nico Hülkenberg 1:31.797 +1.109 24
14 44 Lewis Hamilton 1:31.829 +1.141 21
15 40 Liam Lawson 1:32.141 +1.453 23
16 24 Guanyu Zhou 1:32.165 +1.477 16
17 20 Kevin Magnussen 1:32.169 +1.481 23
18 22 Yuki Tsunoda 1:32.178 +1.490 26
19 10 Pierre Gasly 1:32.179 +1.491 22
20 2 Logan Sargeant 1:32.320 +1.632 25
Classified by best lap · source OpenF1 (2023+)
PosPilotoMejor vueltaDiferenciaVueltas
1 1 Max Verstappen 1:30.267 12
2 4 Lando Norris 1:30.507 +0.240 16
3 81 Oscar Piastri 1:30.555 +0.288 15
4 11 Sergio Pérez 1:31.004 +0.737 12
5 16 Charles Leclerc 1:31.022 +0.755 20
6 55 Carlos Sainz 1:31.137 +0.870 20
7 44 Lewis Hamilton 1:31.159 +0.892 13
8 63 George Russell 1:31.505 +1.238 9
9 14 Fernando Alonso 1:31.549 +1.282 16
10 24 Guanyu Zhou 1:31.668 +1.401 15
11 77 Valtteri Bottas 1:31.699 +1.432 15
12 20 Kevin Magnussen 1:31.880 +1.613 16
13 31 Esteban Ocon 1:31.924 +1.657 13
14 22 Yuki Tsunoda 1:31.951 +1.684 18
15 27 Nico Hülkenberg 1:31.979 +1.712 13
16 2 Logan Sargeant 1:32.002 +1.735 13
17 40 Liam Lawson 1:32.048 +1.781 18
18 23 Alexander Albon 1:32.113 +1.846 12
19 18 Lance Stroll 1:32.154 +1.887 19
20 10 Pierre Gasly 1:32.199 +1.932 15
Classified by best lap · source OpenF1 (2023+)
#PilotoTiempo de vueltaVuelta
1 1 Max Verstappen 1:34.183 L39
2 4 Lando Norris 1:35.247 L40
3 1 Max Verstappen 1:35.248 L42
4 1 Max Verstappen 1:35.433 L41
5 1 Max Verstappen 1:35.462 L44
6 44 Lewis Hamilton 1:35.611 L36
7 4 Lando Norris 1:35.823 L41
8 4 Lando Norris 1:35.844 L42
9 1 Max Verstappen 1:35.914 L40
10 1 Max Verstappen 1:35.915 L45
Top 10 más rápida race vueltas — #1 is the más rápida lap of la carrera(FL).
Paradas · cómo se comparan
25s 30s 35s 40s 45s 50s 55s mediana 24.1s Charles Leclerc · L34 · 22.926s Yuki Tsunoda · L9 · 22.944s Carlos Sainz · L18 · 23.075s Liam Lawson · L10 · 23.136s Lando Norris · L36 · 23.182s Charles Leclerc · L17 · 23.197s Oscar Piastri · L35 · 23.198s Yuki Tsunoda · L30 · 23.327s Nico Hülkenberg · L37 · 23.338s Carlos Sainz · L38 · 23.374s Lance Stroll · L14 · 23.441s Nico Hülkenberg · L8 · 23.520s Lando Norris · L17 · 23.523s Lewis Hamilton · L34 · 23.631s Nico Hülkenberg · L21 · 23.660s Liam Lawson · L25 · 23.671s Max Verstappen · L37 · 23.696s Esteban Ocon · L28 · 23.789s Kevin Magnussen · L12 · 23.816s Kevin Magnussen · L31 · 23.858s George Russell · L24 · 24.034s Fernando Alonso · L11 · 24.086s Guanyu Zhou · L10 · 24.091s Guanyu Zhou · L29 · 24.116s Fernando Alonso · L25 · 24.294s Max Verstappen · L16 · 24.382s Oscar Piastri · L13 · 24.455s Pierre Gasly · L18 · 24.488s Pierre Gasly · L34 · 24.651s Lewis Hamilton · L16 · 24.841s Esteban Ocon · L1 · 27.056s Sergio Pérez · L14 · 30.651s Sergio Pérez · L2 · 32.450s Logan Sargeant · L2 · 32.715s Logan Sargeant · L21 · 35.182s · sanción cumplida Guanyu Zhou · L1 · 41.041s Sergio Pérez · L12 · 41.499s · sanción cumplida Logan Sargeant · L5 · 43.868s Alexander Albon · L1 · 50.143s Alexander Albon · L13 · 52.165s Valtteri Bottas · L6 · 53.512s Valtteri Bottas · L1 · 55.802s
más rápida 22.926s Charles Leclerc más lenta 55.802s Valtteri Bottas sanción cumplida tiempo de paso por el desde el pit lane — un punto por parada
PilotoParadaVueltaTiempoPaso por el desde el pit lane
23 Alexander Albon 1 1 14:06:29 50.143s
31 Esteban Ocon 1 1 14:06:45 27.056s
24 Guanyu Zhou 1 1 14:06:34 41.041s
77 Valtteri Bottas 1 1 14:06:58 55.802s
11 Sergio Pérez 1 2 14:08:56 32.450s
2 Logan Sargeant 1 2 14:09:11 32.715s
2 Logan Sargeant 2 5 14:16:24 43.868s
77 Valtteri Bottas 2 6 14:18:28 53.512s
27 Nico Hülkenberg 1 8 14:21:18 23.520s
22 Yuki Tsunoda 1 9 14:22:56 22.944s
40 Liam Lawson 1 10 14:24:35 23.136s
24 Guanyu Zhou 2 10 14:24:44 24.091s
14 Fernando Alonso 1 11 14:26:10 24.086s
20 Kevin Magnussen 1 12 14:28:23 23.816s
11 Sergio Pérez 2 12 14:28:22 41.499s
81 Oscar Piastri 1 13 14:29:24 24.455s
23 Alexander Albon 2 13 14:29:58 52.165s
18 Lance Stroll 1 14 14:31:37 23.441s
11 Sergio Pérez 4 14 15:14:59 30.651s
1 Max Verstappen 1 16 14:34:31 24.382s
44 Lewis Hamilton 1 16 14:34:49 24.841s
4 Lando Norris 1 17 14:36:20 23.523s
16 Charles Leclerc 1 17 14:36:23 23.197s
10 Pierre Gasly 1 18 14:38:20 24.488s
55 Carlos Sainz 1 18 14:38:04 23.075s
27 Nico Hülkenberg 2 21 14:43:39 23.660s
2 Logan Sargeant 3 21 14:44:16 35.182s
63 George Russell 1 24 14:48:05 24.034s
14 Fernando Alonso 2 25 14:50:07 24.294s
40 Liam Lawson 2 25 14:50:20 23.671s
31 Esteban Ocon 2 28 14:55:08 23.789s
24 Guanyu Zhou 3 29 14:57:06 24.116s
22 Yuki Tsunoda 2 30 14:58:41 23.327s
20 Kevin Magnussen 2 31 15:00:39 23.858s
44 Lewis Hamilton 2 34 15:04:43 23.631s
16 Charles Leclerc 2 34 15:04:38 22.926s
10 Pierre Gasly 2 34 15:05:03 24.651s
81 Oscar Piastri 2 35 15:06:11 23.198s
4 Lando Norris 2 36 15:07:43 23.182s
1 Max Verstappen 2 37 15:09:05 23.696s
27 Nico Hülkenberg 3 37 15:10:23 23.338s
55 Carlos Sainz 2 38 15:11:15 23.374s
paradas
SG 10 20 30 40 L53
1
2
M15
M21
H17
4
2
M16
H19
H18
81
2
M12
H22
H19
16
2
M16
M17
H20
44
2
M15
H18
H20
55
2
M17
M20
H16
63
1
M23
H30
14
2
S10·+3
H14
H29
31
2
H27
H26
10
2
M17
H16
H20
40
2
S9
M15
H28
22
2
S8·+3
M21
H23
24
3
S9
S19
H24
27
3
S7
M13
H16
M16
20
2
M11
H19
H22
23
2
M12
S14
2
3
M4
M16
M2
18
1
S13
M7
11
3
M1
H10
H4
77
2
S5
S2
S Soft M Medium H Hard I Intermediate W Wet SC·VSC parada en boxes sanción cumplida en boxes
Carrera · ancho de barra = vueltas con ese juego, ·+N = montado usado con N vueltas previas · fuente OpenF1 (2023+)
Compuestos designados para este Gran Premio
C1 Duro C2 Medio C3 Blando
Pirelli designa tres de sus compuestos secos para cada prueba; cuanto mayor es el número C, más blando es el neumático. Documento FIA ↗
Más puestos ganados en pista
31
+17
P14→P9
10
+17
P12→P10
24
+14
P19→P13
63
+13
P8→P7
27
+12
P18→P14
55
+11
P6→P6
22
+11
P9→P12
44
+10
P7→P5
Más puestos perdidos
Sergio Pérez −17 Pierre Gasly −13 Nico Hülkenberg −13
Carrera · Suma de posiciones ganadas en pista vuelta a vuelta — se excluyen la vuelta de salida y las vueltas de boxes propias. Datos de vueltas de carrera desde 1996.
PilotoTipoVueltaCumplidaImpuestaMotivo
2 Logan Sargeant Time penalty 9 21 +5s · 2pt Turn 11 incident between Cars 2 and 77. (5 second time penalty. 2 penalty points (total of 4 for the 12 month period).) Documento FIA ↗
Vuelta 9 · Cumplida 21 · +5s · 2pt Turn 11 incident between Cars 2 and 77. (5 second time penalty. 2 penalty points (total of 4 for the 12 month period).) Documento FIA ↗
11 Sergio Pérez Time penalty 9 12 +5s · 2pt Turn 11 incident between Cars 11 and 20. (5 second time penalty. 2 penalty points (total of 7 for the 12 month period).) Documento FIA ↗
Vuelta 9 · Cumplida 12 · +5s · 2pt Turn 11 incident between Cars 11 and 20. (5 second time penalty. 2 penalty points (total of 7 for the 12 month period).) Documento FIA ↗
11 Sergio Pérez Time penalty 15 Tras la carrera +5s · 2pt Car 11 overtaking car 14 under Safety Car conditions at 14:08. (5 second time penalty. 2 penalty points (total of 5 for the 12 month period).) Documento FIA ↗
Vuelta 15 · Cumplida Tras la carrera · +5s · 2pt Car 11 overtaking car 14 under Safety Car conditions at 14:08. (5 second time penalty. 2 penalty points (total of 5 for the 12 month period).) Documento FIA ↗
44 Lewis Hamilton Vueltas eliminadas 17 TRACK LIMITS (PIT)
Vuelta 17 TRACK LIMITS (PIT)
Vuelta = vuelta en que se impuso la sanción · Cumplida = vuelta en que se cumplió en boxes (en blanco: se sumó al tiempo de carrera)
Time, drive-through and stop-go penalties come from race control messages (OpenF1, 2023+). Parrilla penalties never appear there — the stewards publish them as documents after the session — so they are worked back from the starting grid against the clasificación classification, which gives places actually lost rather than the figure written in the decision.
PilotoTipoVueltaCumplidaImpuestaMotivo
2 Logan Sargeant Time penalty +10s Modification of parts/changes to the set-up under Parc Fermé conditions and assembling a chassis to more than an assembly comprising a survival cell, thus having a third car available to the Competitor. (Car 2 is required to start the Carrera from desde el pit lane. In addition a 10 second time penalty is imposed.) Documento FIA ↗
+10s Modification of parts/changes to the set-up under Parc Fermé conditions and assembling a chassis to more than an assembly comprising a survival cell, thus having a third car available to the Competitor. (Car 2 is required to start the Carrera from desde el pit lane. In addition a 10 second time penalty is imposed.) Documento FIA ↗
Vuelta = vuelta en que se impuso la sanción · Cumplida = vuelta en que se cumplió en boxes (en blanco: se sumó al tiempo de carrera)
Time, drive-through and stop-go penalties come from race control messages (OpenF1, 2023+). Parrilla penalties never appear there — the stewards publish them as documents after the session — so they are worked back from the starting grid against the clasificación classification, which gives places actually lost rather than the figure written in the decision.
DocTítuloAsuntoPublished(CET)
Event Notes - Pirelli Preview ↗ 2023-09-20 05:37
2023-09-20 05:37 CET
Event Notes - Circuito Map, Pit Lane Drawing and Red Zone ↗ 2023-09-21 05:16
2023-09-21 05:16 CET
Carrera Director's Event Notes ↗ 2023-09-21 09:07
2023-09-21 09:07 CET
Car Display Procedure ↗ 2023-09-21 11:42
2023-09-21 11:42 CET
RNCs usados per driver up to now ↗ 2023-09-22 01:04
2023-09-22 01:04 CET
PU elements usados per driver up to now ↗ 2023-09-22 01:04
2023-09-22 01:04 CET
Curfew ↗ 2023-09-22 01:05
2023-09-22 01:05 CET
Self scrutineering ↗ 2023-09-22 02:37
2023-09-22 02:37 CET
Entry List ↗ 2023-09-22 02:57
2023-09-22 02:57 CET
New RNCs for this Competition ↗ 2023-09-22 04:46
2023-09-22 04:46 CET
New PU elements for this Competition ↗ 2023-09-22 04:47
2023-09-22 04:47 CET
P1 Classification ↗ 2023-09-22 05:49
2023-09-22 05:49 CET
P2 Classification ↗ 2023-09-22 09:15
2023-09-22 09:15 CET
Carrera Director's Note - SC2-SC1 Time ↗ 2023-09-22 10:16
2023-09-22 10:16 CET
P1 and P2 scrutineering ↗ 2023-09-22 10:49
2023-09-22 10:49 CET
Additional Intermediate Neumáticos ↗ 2023-09-23 02:35
2023-09-23 02:35 CET
New PU elements for this Competition ↗ 2023-09-23 04:45
2023-09-23 04:45 CET
New RNCs for this Competition ↗ 2023-09-23 04:46
2023-09-23 04:46 CET
Post-Clasificación Procedure ↗ 2023-09-23 04:55
2023-09-23 04:55 CET
P3 Classification ↗ 2023-09-23 05:45
2023-09-23 05:45 CET
Provisional Clasificación Classification ↗ 2023-09-23 09:32
2023-09-23 09:32 CET
Clasificación SC2-SC1 Times ↗ 2023-09-23 09:35
2023-09-23 09:35 CET
Clasificación Deleted Vuelta Times ↗ 2023-09-23 09:41
2023-09-23 09:41 CET
Decision - Car 2 - Failing to set a lap time within 107% ↗ 2 Logan Sargeant 2023-09-23 11:01
2 Logan Sargeant 2023-09-23 11:01 CET
P3 and Clasificación scrutineering ↗ 2023-09-23 12:00
2023-09-23 12:00 CET
Final Clasificación Classification ↗ 2023-09-23 12:10
2023-09-23 12:10 CET
Provisional Starting Parrilla ↗ 2023-09-23 12:15
2023-09-23 12:15 CET
Parc Fermé issues ↗ 2023-09-24 03:39
2023-09-24 03:39 CET
Parc Fermé issues ↗ 2023-09-24 04:02
2023-09-24 04:02 CET
Summons - Car 2 - Alleged breach of Parc Ferme conditions ↗ 2 Logan Sargeant 2023-09-24 04:27
2 Logan Sargeant 2023-09-24 04:27 CET
Parts and parameters been replaced and or changed during Parc Fermé ↗ 2023-09-24 04:56
2023-09-24 04:56 CET
Post-Carrera Procedure ↗ 2023-09-24 05:34
2023-09-24 05:34 CET
Pre-Carrera Procedure ↗ 2023-09-24 05:34
2023-09-24 05:34 CET
Infringement - Car 2 - Changes made during Parc Ferme ↗ 2 Logan Sargeant 2023-09-24 05:53
2 Logan Sargeant 2023-09-24 05:53 CET
Final Starting Parrilla ↗ 2023-09-24 05:55
2023-09-24 05:55 CET
Infringement - Car 2 - Causing a collision ↗ 2 Logan Sargeant 2023-09-24 08:20
2 Logan Sargeant 2023-09-24 08:20 CET
Carrera Deleted Vuelta Times ↗ 2023-09-24 08:45
2023-09-24 08:45 CET
Infringement - Car 11 - Causing a collision ↗ 11 Sergio Pérez 2023-09-24 08:52
11 Sergio Pérez 2023-09-24 08:52 CET
Infringement - Car 11 - Overtaking under Safety Car conditions ↗ 11 Sergio Pérez 2023-09-24 08:52
11 Sergio Pérez 2023-09-24 08:52 CET
Provisional Carrera Classification ↗ 2023-09-24 08:55
2023-09-24 08:55 CET
Carrera scrutineering ↗ 2023-09-24 10:52
2023-09-24 10:52 CET
Final Carrera Classification ↗ 2023-09-24 11:00
2023-09-24 11:00 CET
Campeonato Puntos ↗ 2023-09-24 11:05
2023-09-24 11:05 CET
FIA official decisions and documents (fia.com) · PDF original PDF links
Record Basis · Calculation basis
Carrera order is the final classification(post-race penalties applied) · clasificación session data 2003+ · lap times 1996+ · pit stops 2012+ (pit-lane transit, not stationary time) · Abandono = Finished(Finished·+N Vueltas) non-Finished statuses
Fuentes de datos: Jolpica-F1 (Ergast compatible API) · weather·Dirección de carrera OpenF1 (2023+) · Last fetched: 2026-09-05 14:15